[[{"header":{"parameterUnit":"m.s-1","parameterCategory":1,"la1":30.2991,"la2":30.254,"lo1":-89.0895,"lo2":-89.0444,"dy":0.0017,"dx":0.0017,"nx":28,"ny":28,"refTime":"2025-07-21T09:00:00:Z","depth":0,"parameterNumber":2,"parameterNumberName":"U-component_of_WINDS"},"data":[0,0,0,0,0,0,0,0,0,0,0,0,0,0,0,0,0,0,0,0,0,0,0,0,0,0,0,0,0,0,0,0,0,0,0,0,0,0,0,0,0,0,0,0,0,0,0,0,0,0,0,0,0,0,0,0,0,0,1.3431,1.3432,0,1.3573,1.3574,1.3576,1.361,1.3609,1.3608,1.3607,1.3758,1.3763,1.3768,0,0,0,0,0,0,0,0,0,0,0,0,0,1.3195,1.3199,1.3431,1.3433,1.3434,1.3572,1.3574,1.3576,1.361,1.3609,1.3608,1.3607,1.3757,1.3763,1.3768,0,0,0,0,0,0,0,0,0,0,0,0,0,1.3313,1.3201,1.343,1.3468,1.3473,1.3572,1.3574,1.3577,1.3611,1.3609,1.3608,1.3606,1.3755,1.3762,1.3769,1.3843,0,0,1.3792,1.3795,0,0,0,0,0,0,0,0,1.3307,1.3322,1.3461,1.3465,1.3471,1.3572,1.3547,1.3666,1.3611,1.3558,1.3607,1.3606,1.3698,1.371,1.374,1.385,1.3857,1.3792,1.3797,1.38,1.3802,0,0,0,0,0,0,0,1.3298,1.3316,1.3487,1.3463,1.3469,1.3479,1.3494,1.3569,1.3635,1.3563,1.3566,1.3582,1.3701,1.3733,1.3744,1.3859,1.3792,1.3799,1.3803,1.3806,1.4038,1.404,0,0,0,0,0,0,1.3283,1.3309,1.3483,1.3491,1.3383,1.3485,1.3502,1.3541,1.3634,1.3646,1.3583,1.3583,1.3721,1.3735,1.3749,1.3842,1.38,1.3807,1.3811,1.4036,1.4038,1.404,0,0,0,0,0,0,1.3278,1.3298,1.3477,1.3401,1.3424,1.349,1.3534,1.3545,1.3577,1.3649,1.3661,1.3603,1.372,1.3739,1.3819,1.3847,1.381,1.3817,1.4034,1.4037,1.4039,1.4028,0,0,0,0,0,0,1.3271,1.3296,1.3323,1.3401,1.3428,1.3543,1.3536,1.3548,1.3589,1.359,1.3671,1.3683,1.372,1.3808,1.3826,1.3857,1.3823,1.4032,1.4035,1.4038,1.4026,1.4029,1.4033,0,0,0,0,0,1.3262,1.3316,1.3325,1.3345,1.3464,1.3544,1.356,1.36,1.3591,1.362,1.3666,1.3681,1.3841,1.3816,1.3837,1.387,1.403,1.4034,1.4038,1.4024,1.4029,1.4032,0,0,0,0,0,0,1.3241,1.3327,1.3337,1.3417,1.3473,1.355,1.3588,1.3604,1.3665,1.3664,1.3712,1.3731,1.3808,1.3847,1.3818,1.3947,1.3936,1.3944,1.3918,1.3923,1.3926,1.3915,1.3829,0,0,0,0,0,1.3246,1.3302,1.3374,1.3438,1.3465,1.3521,1.3558,1.3584,1.3645,1.3669,1.3721,1.3781,1.3845,1.3886,1.3949,1.4032,1.405,1.4065,1.4068,1.4071,1.4077,1.4124,1.4132,1.4053,1.4053,1.4053,0,0,1.3256,1.331,1.3343,1.3435,1.3481,1.354,1.3541,1.3604,1.3649,1.3679,1.3758,1.3798,1.3868,1.395,1.3989,1.3985,1.4103,1.4076,1.4077,1.4083,1.4129,1.4136,1.4143,1.4056,1.4055,1.4055,0,0,1.3305,1.335,1.3408,1.3454,1.3524,1.3561,1.3575,1.3649,1.3677,1.3756,1.378,1.3835,1.3944,1.3993,1.4032,1.4099,1.4115,1.4119,1.4137,1.4182,1.4188,1.4194,1.4218,1.4226,1.4125,1.4125,1.4125,0,1.3309,1.3397,1.3437,1.3498,1.3538,1.3567,1.3626,1.367,1.3757,1.3785,1.378,1.3917,1.3966,1.4059,1.4075,1.4106,1.4125,1.4109,1.4183,1.419,1.4196,1.4219,1.4228,1.4125,1.4125,1.4125,1.4125,0,1.3399,1.346,1.3499,1.358,1.3625,1.3685,1.3735,1.3777,1.3799,1.3837,1.3917,1.3977,1.4053,1.4077,1.41,1.4174,1.417,1.4173,1.4163,1.4202,1.4225,1.4234,1.4125,1.4125,1.4125,1.4125,0,0,1.3438,1.354,1.3554,1.3591,1.367,1.3718,1.3781,1.3852,1.3887,1.3946,1.4,1.4092,1.4095,1.4139,1.4168,1.4208,1.4257,1.4207,1.4209,1.4214,1.4343,1.4339,1.4349,1.4268,1.427,1.4272,1.4337,0,1.3497,1.3606,1.3644,1.3735,1.3792,1.382,1.3875,1.393,1.3967,1.4023,1.4065,1.4129,1.4128,1.4155,1.4196,1.4242,1.4284,1.4238,1.432,1.4322,1.4301,1.4361,1.4358,1.4416,1.4346,1.4348,1.4349,0,1.3579,1.3637,1.3734,1.3805,1.3831,1.3878,1.3947,1.3999,1.4063,1.4088,1.4137,1.4162,1.423,1.4216,1.431,1.4279,1.4315,1.4343,1.4346,1.4355,1.4338,1.4372,1.4436,1.4445,1.4363,1.4362,1.4361,0,1.3598,1.3701,1.3772,1.3803,1.3888,1.3921,1.3958,1.402,1.4061,1.4122,1.4149,1.4218,1.4256,1.4309,1.4353,1.4339,1.4444,1.4433,1.4467,1.4466,1.4488,1.4486,1.4559,1.4511,1.4511,1.4511,1.4511,0,1.3658,1.3716,1.3781,1.3825,1.3891,1.3935,1.3999,1.4039,1.4094,1.4147,1.4176,1.4226,1.4281,1.4338,1.4374,1.4446,1.4464,1.4486,1.4495,1.4483,1.448,1.4507,1.4504,1.4513,1.4513,1.4512,1.4512,0,1.369,1.3736,1.3815,1.3889,1.3909,1.3954,1.4018,1.4063,1.4101,1.4168,1.4186,1.4247,1.4316,1.4365,1.4455,1.4478,1.4557,1.4565,1.4534,1.4539,1.4569,1.4566,1.4662,1.4677,1.4619,1.462,1.462,0,1.3726,1.3771,1.3849,1.3885,1.3922,1.3981,1.4022,1.4068,1.411,1.4185,1.4221,1.4291,1.435,1.4459,1.4512,1.4581,1.4591,1.462,1.4602,1.4589,1.4592,1.4588,1.4593,1.4623,1.4623,1.4624,1.4624,0,1.3784,1.3804,1.3862,1.3927,1.3975,1.4029,1.4084,1.4113,1.4168,1.4214,1.4284,1.4329,1.4419,1.4489,1.4563,1.4604,1.4623,1.4629,1.4641,1.4629,1.4609,1.462,1.4541,1.4627,1.4627,1.4626,1.4626,1.4626,1.3819,1.386,1.3921,1.3984,1.403,1.408,1.4125,1.4169,1.4227,1.4303,1.4327,1.4399,1.4462,1.4563,1.4604,1.4662,1.4661,1.4678,1.4682,1.4685,1.4684,1.46,1.4676,1.4676,1.4676,1.4676,1.4676,0,1.3878,1.3919,1.3977,1.4051,1.4101,1.4114,1.4175,1.4217,1.4279,1.4336,1.4392,1.4473,1.454,1.4599,1.4669,1.4705,1.4716,1.4722,1.472,1.4729,1.4682,1.4664,1.4712,1.4712,1.4712,1.4712,1.4712,1.4712,1.3915,1.3985,1.4013,1.4107,1.4148,1.4217,1.4251,1.4298,1.4343,1.4431,1.4486,1.4523,1.4581,1.4656,1.472,1.4735,1.476,1.4764,1.4781,1.4736,1.4732,1.4728,1.4712,1.4769,1.4769,1.4824,1.4824,1.4825]},{"header":{"parameterUnit":"m.s-1","parameterCategory":1,"la1":30.2991,"la2":30.254,"lo1":-89.0895,"lo2":-89.0444,"dy":0.0017,"dx":0.0017,"nx":28,"ny":28,"refTime":"2025-07-21T09:00:00:Z","depth":0,"parameterNumber":3,"parameterNumberName":"V-component_of_WINDS"},"data":[0,0,0,0,0,0,0,0,0,0,0,0,0,0,0,0,0,0,0,0,0,0,0,0,0,0,0,0,0,0,0,0,0,0,0,0,0,0,0,0,0,0,0,0,0,0,0,0,0,0,0,0,0,0,0,0,0,0,3.3463,3.3463,0,3.3467,3.3467,3.3467,3.3448,3.3447,3.3447,3.3446,3.3446,3.3446,3.3447,0,0,0,0,0,0,0,0,0,0,0,0,0,3.3431,3.3431,3.3463,3.3463,3.3463,3.3467,3.3467,3.3467,3.3448,3.3447,3.3447,3.3446,3.3446,3.3446,3.3447,0,0,0,0,0,0,0,0,0,0,0,0,0,3.344,3.3432,3.3463,3.3454,3.3453,3.3467,3.3467,3.3467,3.3448,3.3447,3.3447,3.3446,3.3446,3.3446,3.3447,3.3468,0,0,3.3449,3.345,0,0,0,0,0,0,0,0,3.344,3.3442,3.3455,3.3455,3.3454,3.3456,3.3455,3.3467,3.3448,3.345,3.3446,3.3445,3.345,3.345,3.3452,3.3468,3.3468,3.3449,3.345,3.345,3.345,0,0,0,0,0,0,0,3.3439,3.3441,3.3464,3.3455,3.3454,3.3447,3.3448,3.3457,3.3454,3.345,3.3448,3.3449,3.3449,3.3452,3.3452,3.3468,3.3449,3.345,3.345,3.3451,3.3493,3.3494,0,0,0,0,0,0,3.3441,3.3441,3.3464,3.3464,3.3445,3.3448,3.3449,3.3456,3.3454,3.3453,3.345,3.3448,3.3451,3.3451,3.3452,3.3472,3.345,3.3451,3.3451,3.3493,3.3494,3.3494,0,0,0,0,0,0,3.344,3.3443,3.3464,3.3452,3.3454,3.345,3.3458,3.3457,3.3459,3.3454,3.3453,3.3454,3.345,3.3451,3.3463,3.3472,3.3451,3.3452,3.3492,3.3493,3.3494,3.3515,0,0,0,0,0,0,3.3439,3.3443,3.3453,3.3453,3.3455,3.3477,3.3459,3.3457,3.3461,3.3459,3.3458,3.3456,3.345,3.3462,3.3464,3.3473,3.3452,3.3491,3.3492,3.3494,3.3514,3.3517,3.352,0,0,0,0,0,3.3438,3.3459,3.3454,3.3456,3.3468,3.3478,3.3479,3.3472,3.3462,3.347,3.3466,3.3456,3.3471,3.3463,3.3465,3.3475,3.349,3.3492,3.3494,3.3512,3.3516,3.352,0,0,0,0,0,0,3.346,3.3459,3.3453,3.3475,3.3476,3.3475,3.3485,3.3477,3.3481,3.3479,3.3468,3.3468,3.348,3.3479,3.347,3.3491,3.3479,3.3481,3.3492,3.3496,3.3499,3.3498,3.3453,0,0,0,0,0,3.3468,3.3478,3.3476,3.3495,3.3496,3.349,3.3494,3.3489,3.3489,3.349,3.3487,3.3486,3.349,3.3493,3.3497,3.3513,3.351,3.352,3.3523,3.3526,3.3527,3.3531,3.3534,3.3499,3.3499,3.3499,0,0,3.3483,3.3484,3.3491,3.3499,3.35,3.3507,3.3491,3.3501,3.3506,3.3491,3.3501,3.3499,3.3497,3.351,3.3515,3.3509,3.3536,3.3528,3.353,3.353,3.3533,3.3536,3.3539,3.3501,3.35,3.35,0,0,3.3515,3.3518,3.3532,3.3533,3.3533,3.3529,3.3532,3.353,3.3528,3.3539,3.3526,3.353,3.3538,3.3536,3.3536,3.3561,3.3551,3.3563,3.3578,3.3582,3.3585,3.3587,3.3593,3.3595,3.3564,3.3564,3.3564,0,3.3534,3.3547,3.354,3.355,3.3552,3.3538,3.355,3.355,3.3552,3.3552,3.3545,3.3552,3.355,3.356,3.3566,3.3568,3.3568,3.3563,3.3585,3.3587,3.3589,3.3595,3.3597,3.3566,3.3565,3.3565,3.3565,0,3.3568,3.3577,3.3588,3.3589,3.3592,3.3603,3.3595,3.3598,3.3591,3.3586,3.3594,3.3591,3.3591,3.3593,3.3587,3.3601,3.3596,3.3587,3.3574,3.3594,3.3599,3.3601,3.3567,3.3567,3.3567,3.3566,0,0,3.3616,3.3611,3.3614,3.3613,3.3611,3.3616,3.3624,3.3626,3.3627,3.3627,3.3631,3.3636,3.3627,3.3626,3.3619,3.3623,3.3638,3.3612,3.3612,3.3615,3.3649,3.3655,3.3658,3.3631,3.3632,3.3632,3.3648,0,3.3644,3.366,3.3651,3.3666,3.3672,3.3657,3.3663,3.3661,3.3655,3.3657,3.365,3.3652,3.3641,3.364,3.3643,3.3636,3.3644,3.3634,3.3632,3.3632,3.3632,3.3661,3.3668,3.3683,3.365,3.3651,3.3651,0,3.368,3.3681,3.3697,3.3689,3.3691,3.3698,3.3695,3.3699,3.3694,3.3689,3.3687,3.3677,3.368,3.3667,3.367,3.3663,3.3661,3.3657,3.3657,3.3656,3.3642,3.3658,3.3688,3.369,3.3654,3.3654,3.3654,0,3.3709,3.3714,3.3723,3.3723,3.3716,3.3719,3.3716,3.3711,3.371,3.3708,3.3707,3.3704,3.3703,3.3699,3.3687,3.368,3.369,3.3677,3.3684,3.3684,3.3686,3.3686,3.3715,3.3688,3.3688,3.3688,3.3688,0,3.374,3.375,3.3736,3.3741,3.3749,3.3738,3.3746,3.3741,3.3735,3.3737,3.3724,3.3725,3.371,3.3709,3.3699,3.3701,3.3701,3.3695,3.3692,3.3695,3.3695,3.3693,3.3691,3.3688,3.3688,3.3688,3.3688,0,3.3774,3.3766,3.3774,3.3765,3.3763,3.3769,3.3761,3.3763,3.3756,3.3758,3.3757,3.3745,3.3742,3.373,3.3725,3.3718,3.3722,3.3718,3.3724,3.3722,3.3728,3.3727,3.3755,3.3757,3.373,3.373,3.3731,0,3.3794,3.38,3.3792,3.3792,3.379,3.3791,3.379,3.3778,3.3777,3.377,3.3772,3.3769,3.3765,3.3761,3.375,3.3744,3.3739,3.3749,3.3738,3.3739,3.3736,3.3735,3.3734,3.3751,3.3751,3.3752,3.3752,0,3.3828,3.3823,3.3823,3.3821,3.382,3.3817,3.3814,3.3814,3.38,3.3799,3.3797,3.3794,3.3787,3.3782,3.3775,3.3768,3.3756,3.3755,3.3756,3.3759,3.3761,3.3758,3.3728,3.3755,3.3754,3.3754,3.3754,3.3754,3.3854,3.3857,3.3851,3.385,3.3846,3.3842,3.3843,3.3835,3.3833,3.3828,3.382,3.3817,3.3808,3.3796,3.379,3.3786,3.378,3.3782,3.3782,3.3782,3.3783,3.3763,3.3785,3.3785,3.3784,3.3784,3.3784,0,3.3885,3.388,3.3879,3.3874,3.3872,3.3863,3.3857,3.3855,3.3854,3.3847,3.3843,3.3838,3.3832,3.382,3.3812,3.3811,3.3805,3.3809,3.3809,3.3807,3.379,3.3789,3.3814,3.3814,3.3814,3.3814,3.3814,3.3814,3.3901,3.3906,3.3899,3.3899,3.3893,3.3892,3.3889,3.3883,3.3877,3.3872,3.3868,3.386,3.385,3.3841,3.3834,3.383,3.3827,3.3832,3.3827,3.3811,3.3808,3.3806,3.3804,3.3832,3.3832,3.3844,3.3844,3.3844]}]]